Location: Colonie
(42.7179°N, 73.8335°W)
Time: 05:02:11
(UTC+00:00)

H-2A R/B - Pass Details

Date: 29 October 2020
Orbit: 733 x 837 km, 98.2° (Epoch: 27 November)

Event Time Altitude Azimuth Distance (km) Brightness Sun altitude
Exits shadow 22:58:22 - 134° (SE) 3,132 4.8 -12.9°
Reaches altitude 10° 23:00:20 10° 126° (SE) 2,436 4.2 -13.2°
Maximum altitude 23:05:00 31° 66° (ENE) 1,442 2.9 -14.1°
Drops below altitude 10° 23:09:43 10° 7° (N) 2,459 4.5 -14.9°
Sets 23:12:19 0° 357° (N) 3,394 5.3 -15.4°
